Tracking 28335 objects as of 4-Dec-2023
HD Live streaming from Space Station
objects crossing your sky now

STARLINK-3097

Track STARLINK-3097 now!
10-day predictions
STARLINK-3097 is classified as:


NORAD ID: 49448
Int'l Code: 2021-104AS
Perigee: 545.5 km
Apogee: 548.3 km
Inclination: 53.2 °
Period: 95.4 minutes
Semi major axis: 6917 km
RCS: Unknown
Launch date: November 13, 2021
Source: United States (US)
Launch site: AIR FORCE EASTERN TEST RANGE (AFETR)
Your satellite tracking list
Your tracking list is empty




NASA's NSSDC Master Catalog

Two Line Element Set (TLE):
1 49448U 21104AS  23338.15917985  .00009947  00000-0  64245-3 0  9994
2 49448  53.2177 329.6110 0001997 120.9467 239.1721 15.08825718115066
Source of the keplerian elements: AFSPC